Miami, FL

2:45 PM EST en Febrero 18, 2018 (GMT -0500)
Miami International

Tiempo Historia de KMIA - Febrero, 2018

Change the Weather History Date:

Martes, Febrero 13, 2018

  Actual Average Record
Temperature  
Temperatura media 79 ° F 70 ° F  
Temperatura máxima 85 ° F 78 ° F 86 ° F (1982)
Temperatura mínima 73 ° F 62 ° F 35 ° F (1899)
Degree Days  
Grados día de calefacción 0 1  
Month to date heating degree days 0 13  
Since 1 July heating degree days 78 103  
Cooling Degree Days 14 6  
Month to date cooling degree days 148 72  
Year to date cooling degree days 300 223  
Growing Degree Days 28 (Base 50)    
Moisture  
Punto de rocío 69 ° F    
Average Humidity 71    
Maximum Humidity 87    
Minimum Humidity 55    
Precipitación  
Precipitación 0.00 pul 0.09 pul 1.50 pul (1947)
Month to date precipitation 0.16 1.04  
Year to date precipitation 1.17 2.66  
Nieve  
Nieve 0.00 pul - - ()
Month to date snowfall 0.0  
Since 1 July snowfall 0.0  
Grosos de nieve 0.00 pul    
Presión al nivel del mar  
Presión al nivel del mar 30.35 pul    
Viento  
Velocidad del viento 11 mph (Este)    
Velocidad máxima del viento 17 mph    
Max Gust Speed 22 mph    
Visibilidad 10 Millas    
Eventos      
T = Trace of Precipitation, MM = Missing Value Source: NWS Daily Summary

Daily Weather History Graph

Daily Weather History Graph

Search for Another Location

Airport or City:

Trip Planner

Search our weather history database for the weather conditions in past years. The results will help you decide how hot, cold, wet, or windy it might be!

Date:

Astronomía

Feb. 13, 2018 Salida Puesta
Hora real 6:57 AM EST 6:13 PM EST
Crepúsculo civil 6:34 AM EST 6:36 PM EST
Crepúsculo náutico 6:07 AM EST 7:03 PM EST
Crepúsculo astronómico 5:40 AM EST 7:30 PM EST
Luna 5:23 AM EST (2/13) 4:28 PM EST (2/13)
Horas de luz 12h 02m
Horas de luz
11h 15m
Creciente menguante, 4% of the Moon is Illuminated
Feb 13
Creciente menguante
Feb 15
Nueva
Feb 23
Cuarto creciente
Mar 1
Luna llena
Mar 9
Cuarto menguante

Hourly Weather History & Observations

Hora (EST) Temp. Índice de calor Punto de rocío Humedad Presión Visibilidad Wind Dir Velocidad del viento Velocidad de ráfagas Precip Eventos Condiciones
12:53 AM 75.9 ° F - 71.1 ° F 85% 30.31 pul 10.0 mi Este 10.4 mph - N/A   Parcialmente nublado
1:53 AM 75.0 ° F - 71.1 ° F 87% 30.31 pul 10.0 mi Este 10.4 mph - N/A   Parcialmente nublado
2:53 AM 75.0 ° F - 70.0 ° F 84% 30.30 pul 10.0 mi Este 10.4 mph - N/A   Parcialmente nublado
3:53 AM 75.9 ° F - 70.0 ° F 82% 30.30 pul 10.0 mi Este 8.1 mph - N/A   Parcialmente nublado
4:53 AM 73.9 ° F - 70.0 ° F 87% 30.29 pul 10.0 mi Este 8.1 mph - N/A   Parcialmente nublado
5:53 AM 75.0 ° F - 71.1 ° F 87% 30.30 pul 10.0 mi Este 9.2 mph - N/A   Nubes dispersas
6:53 AM 75.0 ° F - 69.1 ° F 82% 30.32 pul 10.0 mi Este 11.5 mph - N/A   Nubes dispersas
7:53 AM 77.0 ° F - 70.0 ° F 79% 30.35 pul 10.0 mi ESE 9.2 mph - N/A   Nubes dispersas
8:53 AM 79.0 ° F - 69.1 ° F 72% 30.37 pul 10.0 mi Este 15.0 mph - N/A   Nubes dispersas
9:53 AM 81.0 ° F 84.1 ° F 69.1 ° F 67% 30.39 pul 10.0 mi Este 13.8 mph - N/A   Muy nublado
10:53 AM 81.0 ° F 83.8 ° F 68.0 ° F 65% 30.39 pul 10.0 mi Este 12.7 mph - N/A   Muy nublado
11:30 AM 82.0 ° F 84.9 ° F 68.0 ° F 62% 30.39 pul 10.0 mi Este 15.0 mph 21.9 mph N/A   Muy nublado
11:53 AM 84.0 ° F 87.0 ° F 68.0 ° F 58% 30.38 pul 10.0 mi Este 11.5 mph - N/A   Muy nublado
12:53 PM 84.0 ° F 86.5 ° F 66.9 ° F 56% 30.37 pul 10.0 mi Este 11.5 mph - N/A   Muy nublado
1:53 PM 82.0 ° F 84.9 ° F 68.0 ° F 62% 30.35 pul 10.0 mi Este 12.7 mph - N/A   Muy nublado
2:53 PM 82.0 ° F 84.9 ° F 68.0 ° F 62% 30.34 pul 10.0 mi ENE 12.7 mph - N/A   Muy nublado
3:53 PM 82.0 ° F 84.9 ° F 68.0 ° F 62% 30.34 pul 10.0 mi ENE 12.7 mph - N/A   Muy nublado
4:53 PM 81.0 ° F 83.3 ° F 66.9 ° F 62% 30.35 pul 10.0 mi Este 11.5 mph - N/A   Muy nublado
5:53 PM 79.0 ° F - 68.0 ° F 69% 30.35 pul 10.0 mi Este 15.0 mph - N/A   Muy nublado
6:53 PM 77.0 ° F - 70.0 ° F 79% 30.35 pul 10.0 mi NE 9.2 mph - N/A   Muy nublado
7:53 PM 77.0 ° F - 70.0 ° F 79% 30.35 pul 10.0 mi NE 9.2 mph - N/A   Muy nublado
8:53 PM 77.0 ° F - 70.0 ° F 79% 30.37 pul 10.0 mi NE 5.8 mph - N/A   Nubes dispersas
9:53 PM 75.0 ° F - 70.0 ° F 84% 30.38 pul 10.0 mi ENE 11.5 mph - N/A   Muy nublado
10:53 PM 77.0 ° F - 70.0 ° F 79% 30.38 pul 10.0 mi Este 13.8 mph - N/A   Muy nublado
11:53 PM 75.9 ° F - 70.0 ° F 82% 30.37 pul 10.0 mi Este 10.4 mph - N/A   Muy nublado